Time,TemperatureF,DewpointF,PressureIn,WindDirection,WindDirectionDegrees,WindSpeedMPH,WindSpeedGustMPH,Humidity,HourlyPrecipIn,Conditions,Clouds,dailyrainin,SoftwareType,DateUTC
2013-06-17 00:00:00,68.6,66.2,30.00,SSW,203,0.0,0.0,92,0.00,,,0.00,Wunderground v.1.15,2013-06-17 04:00:00,
2013-06-17 00:05:00,68.6,66.2,30.00,SSW,203,0.0,0.0,92,0.00,,,0.00,Wunderground v.1.15,2013-06-17 04:05:00,
2013-06-17 00:10:00,68.6,66.2,30.00,SSW,203,0.0,0.0,92,0.00,,,0.00,Wunderground v.1.15,2013-06-17 04:10:00,
2013-06-17 00:20:00,68.4,66.3,30.00,SSW,203,0.0,0.0,93,0.00,,,0.00,Wunderground v.1.15,2013-06-17 04:20:00,
2013-06-17 00:30:00,68.4,66.3,29.99,SSW,203,0.0,0.0,93,0.00,,,0.00,Wunderground v.1.15,2013-06-17 04:30:00,
2013-06-17 00:40:00,68.3,66.2,29.99,SSW,203,0.0,0.0,93,0.00,,,0.00,Wunderground v.1.15,2013-06-17 04:40:00,
2013-06-17 00:50:00,68.1,66.0,29.99,SSW,203,0.0,0.0,93,0.00,,,0.00,Wunderground v.1.15,2013-06-17 04:50:00,
2013-06-17 00:55:00,68.1,66.3,29.99,SSW,203,0.0,0.0,94,0.00,,,0.00,Wunderground v.1.15,2013-06-17 04:55:00,
2013-06-17 01:00:00,67.9,66.1,29.99,SSW,203,0.0,0.0,94,0.00,,,0.00,Wunderground v.1.15,2013-06-17 05:00:00,
2013-06-17 01:05:00,67.8,66.0,29.99,SSW,203,0.0,0.0,94,0.00,,,0.00,Wunderground v.1.15,2013-06-17 05:05:00,
2013-06-17 01:10:00,67.8,66.0,29.99,SSW,203,0.0,0.0,94,0.00,,,0.00,Wunderground v.1.15,2013-06-17 05:10:00,
2013-06-17 01:20:00,67.6,65.8,29.99,SSW,203,0.0,0.0,94,0.00,,,0.00,Wunderground v.1.15,2013-06-17 05:20:00,
2013-06-17 01:30:00,67.6,66.1,29.98,SSW,203,0.0,0.0,95,0.00,,,0.00,Wunderground v.1.15,2013-06-17 05:30:00,
2013-06-17 01:40:00,67.4,65.9,29.98,SSW,203,0.0,0.0,95,0.00,,,0.00,Wunderground v.1.15,2013-06-17 05:40:00,
2013-06-17 01:50:00,67.3,65.8,29.98,SSW,203,0.0,0.0,95,0.00,,,0.00,Wunderground v.1.15,2013-06-17 05:50:00,
2013-06-17 02:00:00,67.1,65.6,29.98,SSW,203,0.0,0.0,95,0.00,,,0.00,Wunderground v.1.15,2013-06-17 06:00:00,
2013-06-17 02:05:00,67.1,65.6,29.98,SSW,203,0.0,0.0,95,0.00,,,0.00,Wunderground v.1.15,2013-06-17 06:05:00,
2013-06-17 02:10:00,67.1,65.9,29.98,SSW,203,0.0,0.0,96,0.00,,,0.00,Wunderground v.1.15,2013-06-17 06:10:00,
2013-06-17 02:20:00,67.1,65.9,29.99,SSW,203,0.0,0.0,96,0.00,,,0.01,Wunderground v.1.15,2013-06-17 06:20:00,
2013-06-17 02:30:00,67.1,65.9,29.99,SSW,203,0.0,0.0,96,0.04,,,0.02,Wunderground v.1.15,2013-06-17 06:30:00,
2013-06-17 02:40:00,66.9,65.7,29.99,SSW,203,0.0,0.0,96,0.11,,,0.04,Wunderground v.1.15,2013-06-17 06:40:00,
2013-06-17 02:50:00,66.8,65.6,29.99,SSW,203,0.0,0.0,96,0.05,,,0.04,Wunderground v.1.15,2013-06-17 06:50:00,
2013-06-17 02:55:00,66.8,65.6,29.99,SSW,203,0.0,0.0,96,0.04,,,0.04,Wunderground v.1.15,2013-06-17 06:55:00,
2013-06-17 03:05:00,66.8,65.6,29.99,SSW,203,0.0,0.0,96,0.00,,,0.05,Wunderground v.1.15,2013-06-17 07:05:00,
2013-06-17 03:10:00,66.6,65.4,29.99,SSW,203,0.0,0.0,96,0.00,,,0.05,Wunderground v.1.15,2013-06-17 07:10:00,
2013-06-17 03:20:00,66.6,65.7,30.00,SSW,202,1.0,1.0,97,0.00,,,0.05,Wunderground v.1.15,2013-06-17 07:20:00,
2013-06-17 03:30:00,66.4,65.2,29.99,South,188,3.0,6.0,96,0.00,,,0.05,Wunderground v.1.15,2013-06-17 07:30:00,
2013-06-17 03:35:00,66.3,64.8,29.99,South,189,4.0,6.0,95,0.00,,,0.05,Wunderground v.1.15,2013-06-17 07:35:00,
2013-06-17 03:45:00,65.8,63.7,29.99,SSW,211,3.0,8.0,93,0.00,,,0.05,Wunderground v.1.15,2013-06-17 07:45:00,
2013-06-17 03:50:00,65.6,63.5,29.99,SSW,200,3.0,3.0,93,0.00,,,0.05,Wunderground v.1.15,2013-06-17 07:50:00,
2013-06-17 04:00:00,65.3,63.5,29.98,SSW,205,0.0,0.0,94,0.00,,,0.05,Wunderground v.1.15,2013-06-17 08:00:00,
2013-06-17 04:10:00,65.2,63.4,29.98,SSW,205,0.0,0.0,94,0.00,,,0.05,Wunderground v.1.15,2013-06-17 08:10:00,
2013-06-17 04:20:00,65.0,63.5,29.98,SSW,205,0.0,0.0,95,0.00,,,0.05,Wunderground v.1.15,2013-06-17 08:20:00,
2013-06-17 04:30:00,64.8,63.3,29.98,SSW,205,0.0,0.0,95,0.00,,,0.05,Wunderground v.1.15,2013-06-17 08:30:00,
2013-06-17 04:35:00,64.7,63.2,29.98,SSW,206,0.0,0.0,95,0.00,,,0.05,Wunderground v.1.15,2013-06-17 08:35:00,
2013-06-17 04:40:00,64.5,63.0,29.98,SSW,206,0.0,0.0,95,0.00,,,0.05,Wunderground v.1.15,2013-06-17 08:40:00,
2013-06-17 04:50:00,64.5,63.3,29.99,SSW,206,0.0,0.0,96,0.00,,,0.05,Wunderground v.1.15,2013-06-17 08:50:00,
2013-06-17 05:00:00,64.2,63.0,29.98,SSW,206,0.0,0.0,96,0.00,,,0.05,Wunderground v.1.15,2013-06-17 09:00:00,
2013-06-17 05:10:00,63.9,62.7,29.99,SSW,206,0.0,0.0,96,0.00,,,0.05,Wunderground v.1.15,2013-06-17 09:10:00,
2013-06-17 05:20:00,63.7,62.5,29.99,SSW,205,0.0,0.0,96,0.00,,,0.05,Wunderground v.1.15,2013-06-17 09:20:00,
2013-06-17 05:30:00,63.5,62.3,29.99,SSW,205,0.0,0.0,96,0.00,,,0.05,Wunderground v.1.15,2013-06-17 09:30:00,
2013-06-17 05:40:00,63.4,62.5,29.98,SSW,205,0.0,0.0,97,0.00,,,0.05,Wunderground v.1.15,2013-06-17 09:40:00,
2013-06-17 05:45:00,63.2,62.3,29.98,SSW,206,0.0,0.0,97,0.00,,,0.05,Wunderground v.1.15,2013-06-17 09:45:00,
2013-06-17 05:55:00,63.1,62.2,29.98,SSW,206,0.0,0.0,97,0.00,,,0.05,Wunderground v.1.15,2013-06-17 09:55:00,
2013-06-17 06:00:00,62.9,62.0,29.98,SSW,206,0.0,0.0,97,0.00,,,0.05,Wunderground v.1.15,2013-06-17 10:00:00,
2013-06-17 06:10:00,62.7,61.8,29.98,SSW,206,0.0,0.0,97,0.00,,,0.05,Wunderground v.1.15,2013-06-17 10:10:00,
2013-06-17 06:20:00,62.6,61.7,29.98,SSW,206,0.0,0.0,97,0.00,,,0.05,Wunderground v.1.15,2013-06-17 10:20:00,
2013-06-17 06:30:00,62.6,62.0,29.98,SSW,206,0.0,0.0,98,0.00,,,0.05,Wunderground v.1.15,2013-06-17 10:30:00,
2013-06-17 06:40:00,62.6,62.0,29.98,SSW,205,0.0,0.0,98,0.00,,,0.05,Wunderground v.1.15,2013-06-17 10:40:00,
2013-06-17 06:45:00,62.6,62.0,29.98,SSW,205,0.0,0.0,98,0.00,,,0.05,Wunderground v.1.15,2013-06-17 10:45:00,
2013-06-17 06:50:00,62.6,62.0,29.98,SSW,206,0.0,0.0,98,0.00,,,0.05,Wunderground v.1.15,2013-06-17 10:50:00,
2013-06-17 07:00:00,62.9,62.3,29.98,West,265,0.0,0.0,98,0.00,,,0.05,Wunderground v.1.15,2013-06-17 11:00:00,
2013-06-17 07:10:00,63.1,62.5,29.99,West,265,0.0,0.0,98,0.00,,,0.05,Wunderground v.1.15,2013-06-17 11:10:00,
2013-06-17 07:15:00,63.1,62.5,29.99,West,265,0.0,0.0,98,0.00,,,0.05,Wunderground v.1.15,2013-06-17 11:15:00,
2013-06-17 07:20:00,63.4,62.8,29.99,West,265,0.0,0.0,98,0.00,,,0.05,Wunderground v.1.15,2013-06-17 11:20:00,
2013-06-17 07:30:00,63.5,62.9,29.99,West,265,0.0,0.0,98,0.00,,,0.05,Wunderground v.1.15,2013-06-17 11:30:00,
2013-06-17 07:40:00,63.9,63.3,29.99,WSW,257,0.0,0.0,98,0.00,,,0.05,Wunderground v.1.15,2013-06-17 11:40:00,
2013-06-17 07:50:00,64.2,63.6,29.99,WSW,257,0.0,0.0,98,0.00,,,0.05,Wunderground v.1.15,2013-06-17 11:50:00,
2013-06-17 07:55:00,64.3,63.7,29.99,WSW,257,0.0,0.0,98,0.00,,,0.05,Wunderground v.1.15,2013-06-17 11:55:00,
2013-06-17 08:00:00,64.5,63.9,29.99,WSW,257,0.0,0.0,98,0.00,,,0.05,Wunderground v.1.15,2013-06-17 12:00:00,
2013-06-17 08:10:00,64.7,63.8,29.99,WSW,257,0.0,0.0,97,0.00,,,0.05,Wunderground v.1.15,2013-06-17 12:10:00,
2013-06-17 08:20:00,64.8,63.6,29.99,WSW,257,0.0,0.0,96,0.00,,,0.05,Wunderground v.1.15,2013-06-17 12:20:00,
2013-06-17 08:30:00,65.0,63.5,29.99,WSW,257,0.0,0.0,95,0.00,,,0.05,Wunderground v.1.15,2013-06-17 12:30:00,
2013-06-17 08:40:00,65.5,64.0,29.99,WSW,257,0.0,0.0,95,0.00,,,0.05,Wunderground v.1.15,2013-06-17 12:40:00,
2013-06-17 08:50:00,65.6,63.8,29.99,WSW,257,0.0,0.0,94,0.00,,,0.05,Wunderground v.1.15,2013-06-17 12:50:00,
2013-06-17 08:55:00,65.8,64.0,29.99,WSW,257,0.0,0.0,94,0.00,,,0.05,Wunderground v.1.15,2013-06-17 12:55:00,
2013-06-17 09:00:00,65.8,64.0,29.99,WSW,257,0.0,0.0,94,0.00,,,0.05,Wunderground v.1.15,2013-06-17 13:00:00,
2013-06-17 09:10:00,66.0,63.9,29.99,WSW,257,0.0,0.0,93,0.00,,,0.05,Wunderground v.1.15,2013-06-17 13:10:00,
2013-06-17 09:15:00,66.1,64.3,29.99,WSW,257,0.0,0.0,94,0.00,,,0.05,Wunderground v.1.15,2013-06-17 13:15:00,
2013-06-17 09:20:00,66.3,64.5,29.99,WSW,257,0.0,0.0,94,0.00,,,0.05,Wunderground v.1.15,2013-06-17 13:20:00,
2013-06-17 09:25:00,66.4,64.6,29.98,WSW,257,0.0,0.0,94,0.00,,,0.05,Wunderground v.1.15,2013-06-17 13:25:00,
2013-06-17 09:35:00,66.6,64.5,29.98,WSW,257,0.0,0.0,93,0.00,,,0.05,Wunderground v.1.15,2013-06-17 13:35:00,
2013-06-17 09:40:00,66.8,64.7,29.98,SW,219,0.0,0.0,93,0.00,,,0.05,Wunderground v.1.15,2013-06-17 13:40:00,
2013-06-17 09:45:00,67.1,64.7,29.98,SW,219,0.0,0.0,92,0.00,,,0.05,Wunderground v.1.15,2013-06-17 13:45:00,
2013-06-17 09:50:00,67.3,64.9,29.97,SW,219,0.0,2.0,92,0.00,,,0.05,Wunderground v.1.15,2013-06-17 13:50:00,
2013-06-17 10:00:00,67.9,65.2,29.97,SW,219,0.0,0.0,91,0.00,,,0.05,Wunderground v.1.15,2013-06-17 14:00:00,
2013-06-17 10:05:00,68.3,65.6,29.98,SW,219,0.0,0.0,91,0.00,,,0.05,Wunderground v.1.15,2013-06-17 14:05:00,
2013-06-17 10:15:00,68.8,65.4,29.98,SSW,213,2.0,3.0,89,0.00,,,0.05,Wunderground v.1.15,2013-06-17 14:15:00,
2013-06-17 10:20:00,68.9,65.5,29.98,SSW,202,3.0,3.0,89,0.00,,,0.05,Wunderground v.1.15,2013-06-17 14:20:00,
2013-06-17 10:30:00,69.4,65.7,29.98,SSW,211,3.0,7.0,88,0.00,,,0.05,Wunderground v.1.15,2013-06-17 14:30:00,
2013-06-17 10:35:00,69.4,66.0,29.98,SSW,194,4.0,7.0,89,0.00,,,0.05,Wunderground v.1.15,2013-06-17 14:35:00,
2013-06-17 10:45:00,69.4,66.3,29.98,South,180,1.0,4.0,90,0.00,,,0.05,Wunderground v.1.15,2013-06-17 14:45:00,
2013-06-17 10:50:00,69.4,66.0,29.98,SSW,197,2.0,2.0,89,0.00,,,0.05,Wunderground v.1.15,2013-06-17 14:50:00,
2013-06-17 11:00:00,69.6,66.5,29.98,SSW,204,2.0,2.0,90,0.00,,,0.05,Wunderground v.1.15,2013-06-17 15:00:00,
2013-06-17 11:10:00,69.9,66.2,29.99,SW,219,1.0,1.0,88,0.00,,,0.05,Wunderground v.1.15,2013-06-17 15:10:00,
2013-06-17 11:15:00,70.3,66.6,29.99,SW,223,1.0,2.0,88,0.00,,,0.05,Wunderground v.1.15,2013-06-17 15:15:00,
2013-06-17 11:20:00,70.4,66.7,29.99,SW,220,0.0,1.0,88,0.00,,,0.05,Wunderground v.1.15,2013-06-17 15:20:00,
2013-06-17 11:30:00,70.4,66.7,29.99,SW,234,1.0,1.0,88,0.00,,,0.05,Wunderground v.1.15,2013-06-17 15:30:00,
2013-06-17 11:35:00,70.3,66.6,30.00,SW,232,0.0,2.0,88,0.00,,,0.05,Wunderground v.1.15,2013-06-17 15:35:00,
2013-06-17 11:45:00,70.3,66.2,29.99,SW,225,2.0,2.0,87,0.00,,,0.05,Wunderground v.1.15,2013-06-17 15:45:00,
2013-06-17 11:50:00,70.6,66.9,29.99,SW,215,2.0,2.0,88,0.00,,,0.05,Wunderground v.1.15,2013-06-17 15:50:00,
2013-06-17 12:00:00,71.1,67.0,29.99,SW,215,0.0,0.0,87,0.00,,,0.05,Wunderground v.1.15,2013-06-17 16:00:00,
2013-06-17 12:10:00,72.3,68.5,29.99,SW,216,1.0,1.0,88,0.00,,,0.05,Wunderground v.1.15,2013-06-17 16:10:00,
2013-06-17 12:20:00,72.1,67.0,29.98,West,264,1.0,1.0,84,0.00,,,0.05,Wunderground v.1.15,2013-06-17 16:20:00,
2013-06-17 12:25:00,72.1,67.0,29.98,WSW,244,1.0,3.0,84,0.00,,,0.05,Wunderground v.1.15,2013-06-17 16:25:00,
2013-06-17 12:35:00,73.3,68.2,29.97,South,172,2.0,2.0,84,0.00,,,0.05,Wunderground v.1.15,2013-06-17 16:35:00,
2013-06-17 12:40:00,73.9,68.8,29.97,WSW,244,2.0,2.0,84,0.00,,,0.05,Wunderground v.1.15,2013-06-17 16:40:00,
2013-06-17 12:45:00,74.4,68.9,29.97,SSW,207,2.0,2.0,83,0.00,,,0.05,Wunderground v.1.15,2013-06-17 16:45:00,
2013-06-17 12:55:00,74.7,68.8,29.97,SW,217,2.0,4.0,82,0.00,,,0.05,Wunderground v.1.15,2013-06-17 16:55:00,
2013-06-17 13:00:00,75.1,68.9,29.97,SSW,202,2.0,4.0,81,0.00,,,0.05,Wunderground v.1.15,2013-06-17 17:00:00,
2013-06-17 13:10:00,75.6,68.3,29.97,SW,234,2.0,2.0,78,0.00,,,0.05,Wunderground v.1.15,2013-06-17 17:10:00,
2013-06-17 13:20:00,76.1,68.4,29.97,SSW,194,2.0,2.0,77,0.00,,,0.05,Wunderground v.1.15,2013-06-17 17:20:00,
2013-06-17 13:25:00,76.5,68.7,29.97,South,187,3.0,3.0,77,0.00,,,0.05,Wunderground v.1.15,2013-06-17 17:25:00,
2013-06-17 13:30:00,76.5,68.4,29.97,WSW,247,3.0,8.0,76,0.00,,,0.05,Wunderground v.1.15,2013-06-17 17:30:00,
2013-06-17 13:40:00,76.7,68.6,29.96,SW,214,3.0,7.0,76,0.00,,,0.05,Wunderground v.1.15,2013-06-17 17:40:00,
2013-06-17 13:50:00,77.0,68.9,29.96,South,188,4.0,4.0,76,0.00,,,0.05,Wunderground v.1.15,2013-06-17 17:50:00,
2013-06-17 14:00:00,77.4,69.6,29.95,SSW,194,1.0,1.0,77,0.00,,,0.05,Wunderground v.1.15,2013-06-17 18:00:00,
2013-06-17 14:05:00,77.6,68.3,29.95,SSW,206,1.0,4.0,73,0.00,,,0.05,Wunderground v.1.15,2013-06-17 18:05:00,
2013-06-17 14:10:00,77.6,69.4,29.95,South,184,4.0,7.0,76,0.00,,,0.05,Wunderground v.1.15,2013-06-17 18:10:00,
2013-06-17 14:20:00,78.3,68.1,29.94,SW,215,4.0,4.0,71,0.00,,,0.05,Wunderground v.1.15,2013-06-17 18:20:00,
2013-06-17 14:30:00,78.8,67.8,29.94,SW,233,3.0,5.0,69,0.00,,,0.05,Wunderground v.1.15,2013-06-17 18:30:00,
2013-06-17 14:40:00,78.6,68.0,29.94,SSW,203,6.0,6.0,70,0.00,,,0.05,Wunderground v.1.15,2013-06-17 18:40:00,
2013-06-17 14:50:00,79.6,66.8,29.93,SSW,209,5.0,5.0,65,0.00,,,0.05,Wunderground v.1.15,2013-06-17 18:50:00,
2013-06-17 15:00:00,79.6,66.3,29.93,WSW,239,3.0,4.0,64,0.00,,,0.05,Wunderground v.1.15,2013-06-17 19:00:00,
2013-06-17 15:05:00,79.6,66.3,29.93,SW,223,4.0,4.0,64,0.00,,,0.05,Wunderground v.1.15,2013-06-17 19:05:00,
2013-06-17 15:15:00,79.8,66.5,29.93,South,178,5.0,6.0,64,0.00,,,0.05,Wunderground v.1.15,2013-06-17 19:15:00,
2013-06-17 15:25:00,80.1,67.3,29.92,WSW,243,4.0,4.0,65,0.00,,,0.05,Wunderground v.1.15,2013-06-17 19:25:00,
2013-06-17 15:30:00,80.5,68.1,29.92,South,188,3.0,3.0,66,0.00,,,0.05,Wunderground v.1.15,2013-06-17 19:30:00,
2013-06-17 15:35:00,80.5,66.3,29.92,SW,221,2.0,3.0,62,0.00,,,0.05,Wunderground v.1.15,2013-06-17 19:35:00,
2013-06-17 15:40:00,79.8,65.6,29.92,SSW,211,2.0,3.0,62,0.00,,,0.05,Wunderground v.1.15,2013-06-17 19:40:00,
2013-06-17 15:50:00,78.8,66.0,29.91,South,188,3.0,3.0,65,0.00,,,0.05,Wunderground v.1.15,2013-06-17 19:50:00,
2013-06-17 16:00:00,79.2,65.5,29.91,West,270,3.0,3.0,63,0.00,,,0.05,Wunderground v.1.15,2013-06-17 20:00:00,
2013-06-17 16:10:00,80.3,67.5,29.91,SW,230,1.0,2.0,65,0.00,,,0.05,Wunderground v.1.15,2013-06-17 20:10:00,
2013-06-17 16:20:00,80.3,67.5,29.90,SW,218,2.0,2.0,65,0.00,,,0.05,Wunderground v.1.15,2013-06-17 20:20:00,
2013-06-17 16:25:00,80.7,66.9,29.90,WSW,258,3.0,3.0,63,0.00,,,0.05,Wunderground v.1.15,2013-06-17 20:25:00,
2013-06-17 16:30:00,80.7,67.4,29.90,SSW,213,2.0,4.0,64,0.00,,,0.05,Wunderground v.1.15,2013-06-17 20:30:00,
2013-06-17 16:40:00,81.1,67.3,29.89,SSW,211,1.0,4.0,63,0.00,,,0.05,Wunderground v.1.15,2013-06-17 20:40:00,
2013-06-17 16:50:00,81.1,67.8,29.89,SSW,198,3.0,3.0,64,0.00,,,0.05,Wunderground v.1.15,2013-06-17 20:50:00,
2013-06-17 17:00:00,81.1,68.2,29.89,South,188,1.0,4.0,65,0.00,,,0.05,Wunderground v.1.15,2013-06-17 21:00:00,
2013-06-17 17:05:00,80.1,67.3,29.89,SSW,197,3.0,4.0,65,0.00,,,0.05,Wunderground v.1.15,2013-06-17 21:05:00,
2013-06-17 17:10:00,79.2,68.6,29.89,SSW,193,4.0,4.0,70,0.00,,,0.05,Wunderground v.1.15,2013-06-17 21:10:00,
2013-06-17 17:20:00,79.6,69.0,29.89,South,191,2.0,5.0,70,0.00,,,0.05,Wunderground v.1.15,2013-06-17 21:20:00,
2013-06-17 17:30:00,79.6,68.5,29.89,SSW,196,2.0,2.0,69,0.00,,,0.05,Wunderground v.1.15,2013-06-17 21:30:00,
2013-06-17 17:40:00,78.6,68.0,29.89,SSW,202,2.0,5.0,70,0.00,,,0.05,Wunderground v.1.15,2013-06-17 21:40:00,
2013-06-17 17:50:00,78.8,67.3,29.89,SSW,192,2.0,4.0,68,0.00,,,0.05,Wunderground v.1.15,2013-06-17 21:50:00,
2013-06-17 18:00:00,79.2,67.7,29.89,South,188,2.0,2.0,68,0.00,,,0.05,Wunderground v.1.15,2013-06-17 22:00:00,
2013-06-17 18:10:00,79.6,69.4,29.89,South,189,1.0,1.0,71,0.00,,,0.05,Wunderground v.1.15,2013-06-17 22:10:00,
2013-06-17 18:20:00,79.2,68.1,29.88,South,186,3.0,3.0,69,0.00,,,0.05,Wunderground v.1.15,2013-06-17 22:20:00,
2013-06-17 18:25:00,79.0,68.0,29.89,SW,236,2.0,4.0,69,0.00,,,0.05,Wunderground v.1.15,2013-06-17 22:25:00,
2013-06-17 18:35:00,78.1,67.5,29.89,South,190,4.0,4.0,70,0.00,,,0.05,Wunderground v.1.15,2013-06-17 22:35:00,
2013-06-17 18:40:00,77.7,68.0,29.88,SW,226,4.0,4.0,72,0.00,,,0.05,Wunderground v.1.15,2013-06-17 22:40:00,
2013-06-17 18:45:00,77.7,68.0,29.88,SSW,204,2.0,4.0,72,0.00,,,0.05,Wunderground v.1.15,2013-06-17 22:45:00,
2013-06-17 18:50:00,77.9,67.7,29.88,SSW,202,2.0,6.0,71,0.00,,,0.05,Wunderground v.1.15,2013-06-17 22:50:00,
2013-06-17 19:00:00,78.1,68.3,29.89,South,190,2.0,4.0,72,0.00,,,0.05,Wunderground v.1.15,2013-06-17 23:00:00,
2013-06-17 19:10:00,78.1,67.9,29.88,SSW,201,3.0,3.0,71,0.00,,,0.05,Wunderground v.1.15,2013-06-17 23:10:00,
2013-06-17 19:20:00,77.7,68.4,29.88,SSW,196,3.0,4.0,73,0.00,,,0.05,Wunderground v.1.15,2013-06-17 23:20:00,
2013-06-17 19:30:00,77.4,68.1,29.89,South,188,3.0,3.0,73,0.00,,,0.05,Wunderground v.1.15,2013-06-17 23:30:00,
2013-06-17 19:40:00,77.0,67.7,29.89,SSW,198,3.0,5.0,73,0.00,,,0.05,Wunderground v.1.15,2013-06-17 23:40:00,
2013-06-17 19:50:00,76.1,67.2,29.89,SSW,209,4.0,4.0,74,0.00,,,0.05,Wunderground v.1.15,2013-06-17 23:50:00,
2013-06-17 20:00:00,75.3,67.2,29.89,SW,228,1.0,1.0,76,0.00,,,0.05,Wunderground v.1.15,2013-06-18 00:00:00,
2013-06-17 20:10:00,74.6,67.3,29.89,SSW,205,0.0,0.0,78,0.00,,,0.05,Wunderground v.1.15,2013-06-18 00:10:00,
2013-06-17 20:20:00,74.0,67.4,29.89,SSW,205,0.0,0.0,80,0.00,,,0.05,Wunderground v.1.15,2013-06-18 00:20:00,
2013-06-17 20:25:00,73.9,67.0,29.89,SSW,205,0.0,0.0,79,0.00,,,0.05,Wunderground v.1.15,2013-06-18 00:25:00,
2013-06-17 20:30:00,73.7,67.1,29.89,SSW,205,0.0,0.0,80,0.00,,,0.05,Wunderground v.1.15,2013-06-18 00:30:00,
2013-06-17 20:40:00,73.5,67.3,29.89,SSW,205,0.0,0.0,81,0.00,,,0.05,Wunderground v.1.15,2013-06-18 00:40:00,
2013-06-17 20:50:00,73.0,66.8,29.89,SSW,205,0.0,0.0,81,0.00,,,0.05,Wunderground v.1.15,2013-06-18 00:50:00,
2013-06-17 21:00:00,72.5,66.7,29.89,SSW,205,0.0,0.0,82,0.00,,,0.05,Wunderground v.1.15,2013-06-18 01:00:00,
2013-06-17 21:10:00,72.1,67.0,29.90,SSW,205,0.0,0.0,84,0.00,,,0.05,Wunderground v.1.15,2013-06-18 01:10:00,
2013-06-17 21:20:00,71.6,66.5,29.90,SSW,205,0.0,0.0,84,0.00,,,0.05,Wunderground v.1.15,2013-06-18 01:20:00,
2013-06-17 21:30:00,71.3,66.6,29.90,SSW,205,0.0,0.0,85,0.00,,,0.05,Wunderground v.1.15,2013-06-18 01:30:00,
2013-06-17 21:40:00,70.9,66.5,29.90,SSW,205,0.0,0.0,86,0.00,,,0.05,Wunderground v.1.15,2013-06-18 01:40:00,
2013-06-17 21:50:00,70.6,66.5,29.91,SSW,205,0.0,0.0,87,0.00,,,0.05,Wunderground v.1.15,2013-06-18 01:50:00,
2013-06-17 22:00:00,70.6,66.9,29.91,SSW,205,0.0,0.0,88,0.00,,,0.05,Wunderground v.1.15,2013-06-18 02:00:00,
2013-06-17 22:10:00,70.6,67.2,29.91,SSW,205,0.0,0.0,89,0.00,,,0.05,Wunderground v.1.15,2013-06-18 02:10:00,
2013-06-17 22:20:00,70.4,66.7,29.91,SSW,205,0.0,0.0,88,0.00,,,0.05,Wunderground v.1.15,2013-06-18 02:20:00,
2013-06-17 22:25:00,70.4,66.7,29.91,SSW,205,0.0,0.0,88,0.00,,,0.05,Wunderground v.1.15,2013-06-18 02:25:00,
2013-06-17 22:30:00,70.3,66.6,29.91,SSW,205,0.0,0.0,88,0.00,,,0.05,Wunderground v.1.15,2013-06-18 02:30:00,
2013-06-17 22:40:00,70.1,66.4,29.91,SSW,205,0.0,0.0,88,0.00,,,0.05,Wunderground v.1.15,2013-06-18 02:40:00,
2013-06-17 22:50:00,70.1,66.4,29.91,SSW,205,0.0,0.0,88,0.00,,,0.05,Wunderground v.1.15,2013-06-18 02:50:00,
2013-06-17 23:00:00,70.1,66.4,29.91,SSW,205,0.0,0.0,88,0.00,,,0.05,Wunderground v.1.15,2013-06-18 03:00:00,
2013-06-17 23:10:00,69.9,66.8,29.92,SSW,205,0.0,0.0,90,0.00,,,0.05,Wunderground v.1.15,2013-06-18 03:10:00,
2013-06-17 23:20:00,69.8,66.7,29.91,SSW,205,0.0,0.0,90,0.00,,,0.05,Wunderground v.1.15,2013-06-18 03:20:00,
2013-06-17 23:25:00,69.8,66.7,29.91,SSW,205,0.0,0.0,90,0.00,,,0.05,Wunderground v.1.15,2013-06-18 03:25:00,
2013-06-17 23:30:00,69.6,66.5,29.91,SSW,205,0.0,0.0,90,0.00,,,0.05,Wunderground v.1.15,2013-06-18 03:30:00,
2013-06-17 23:40:00,69.4,66.7,29.91,SSW,205,0.0,0.0,91,0.00,,,0.05,Wunderground v.1.15,2013-06-18 03:40:00,
2013-06-17 23:50:00,69.3,66.6,29.91,SSW,205,0.0,0.0,91,0.00,,,0.05,Wunderground v.1.15,2013-06-18 03:50:00,